Index of /drivers/GFSU/
../
SMDDevice 16-Mar-2026 10:04 3633264
SMDDevice1 08-Jul-2024 11:59 2536848
a2000.zip 06-May-2026 08:16 67067
abb_et.zip 06-May-2026 08:16 92693
abb_m1m.zip 06-May-2026 08:16 66278
ac_su.zip 06-May-2026 08:16 3003
ac_v2.zip 06-May-2026 08:16 69264
access4000x.zip 06-May-2026 08:16 73021
acintrudedc.zip 06-May-2026 08:16 1380
acm03u1.zip 06-May-2026 08:16 91409
acpowersaver_temperature.zip 06-May-2026 08:16 55298
acrel_aem.zip 06-May-2026 08:16 66629
acrel_pz.zip 06-May-2026 08:16 92108
acrelacr.zip 06-May-2026 08:16 65809
acrelamc.zip 06-May-2026 08:16 64546
acreldtsd1352.zip 06-May-2026 08:16 75518
acrelpz72l.zip 06-May-2026 08:16 64409
aeg_ms10m.zip 06-May-2026 08:16 67748
aeg_ms10se.zip 06-May-2026 08:16 67313
agc150.zip 06-May-2026 08:16 75067
ai_general_temp_humid.zip 06-May-2026 08:16 67517
ai_water2.zip 06-May-2026 08:16 65371
aigeneralshaper.zip 06-May-2026 08:16 81879
airsys.zip 06-May-2026 08:16 83590
akshuayibump.zip 06-May-2026 08:16 80784
akshuayibump2.zip 06-May-2026 08:16 79929
akshuayiliejianac.zip 06-May-2026 08:16 86591
am5set.zip 06-May-2026 08:16 71236
amc100.zip 06-May-2026 08:16 116744
amc16z_1dc.zip 06-May-2026 08:16 65127
amc16z_2ac.zip 06-May-2026 08:16 74234
amc16z_2dc.zip 06-May-2026 08:16 90270
amc72_96.zip 06-May-2026 08:16 71402
amf20.zip 06-May-2026 08:16 89569
amf25.zip 06-May-2026 08:16 74402
arcm200l.zip 06-May-2026 08:16 55735
ascb1.zip 06-May-2026 08:16 66954
ascoc600.zip 06-May-2026 08:16 71323
babangmeter.zip 06-May-2026 08:16 64722
bat61cj.zip 06-May-2026 08:16 68815
battery24_voltage.zip 06-May-2026 08:16 1846
battery2v_32.zip 06-May-2026 08:16 220530
battery_24.zip 06-May-2026 08:16 3810
battery_32.zip 06-May-2026 08:16 220589
batterycurrent4_20_n100_100.zip 06-May-2026 08:16 61815
batteryvoltage4_20.zip 06-May-2026 08:16 61431
bepmw2800.zip 06-May-2026 08:16 64655
bmu24.zip 06-May-2026 08:16 2312
bt_48dc.zip 06-May-2026 08:16 71417
bt_s80_a3_cbah01_b14.zip 06-May-2026 08:16 85612
bt_venv.zip 06-May-2026 08:16 87566
btbacnetleng.zip 06-May-2026 08:16 78932
btbacnetleng1.zip 06-May-2026 08:16 75484
btbacnetleng170.zip 06-May-2026 08:16 81620
btbacnetleng171_172.zip 06-May-2026 08:16 68736
btbacnetleng173_174_175.zip 06-May-2026 08:16 68931
btbacnetleng176_177.zip 06-May-2026 08:16 69154
btbat2000.zip 06-May-2026 08:16 88805
btbat2000_2.zip 07-Apr-2026 08:35 88258
btfengjidi.zip 06-May-2026 08:16 74485
bthengshiji.zip 21-Jun-2024 10:00 62445
bwdk326.zip 06-May-2026 08:16 72115
bzcdoorsensor.zip 06-May-2026 08:16 70660
c2000_a2_sdxa000_ax1.zip 06-May-2026 08:16 72011
camera.zip 06-May-2026 08:16 4151
canatal.zip 06-May-2026 08:16 79376
canatal_ms1554.zip 06-May-2026 08:16 78216
cavt.zip 06-May-2026 08:16 86700
cdq1s.zip 06-May-2026 08:16 77349
championups.zip 06-May-2026 08:16 209745
changjiyuncang.zip 06-May-2026 08:16 83878
changjiyuncang20.zip 06-May-2026 08:16 84814
climavenetaac.zip 06-May-2026 08:16 67311
cm02n600a0.zip 06-May-2026 08:16 82729
cmplus.zip 06-May-2026 08:16 76627
cms200.zip 06-May-2026 08:16 127403
cphp2200.zip 06-May-2026 08:16 1887
cpm1350.zip 06-May-2026 08:16 73246
cpm3310.zip 06-May-2026 08:16 65718
cscp.zip 06-May-2026 08:16 275164
cscp_419.zip 06-May-2026 08:16 118440
ctdg_ac.zip 06-May-2026 08:16 68054
cuc01h.zip 06-May-2026 08:16 95321
cuc01hc.zip 06-May-2026 08:16 298341
cuc01hc_419.zip 06-May-2026 08:16 113793
cuc0609h.zip 06-May-2026 08:16 294516
cuc0609h_419.zip 06-May-2026 08:16 116250
cuc2000hi.zip 06-May-2026 08:16 81828
cuc21vb.zip 06-May-2026 08:16 177103
cws19_temperature_sp2.zip 06-May-2026 08:16 48009
cybermateevo.zip 06-May-2026 08:16 66390
cypd10a.zip 06-May-2026 08:16 68307
daneng6000.zip 06-May-2026 08:16 65622
datamate3000.zip 06-May-2026 08:16 81727
db4610.zip 06-May-2026 08:16 76140
dc4xdmk3.zip 06-May-2026 08:16 81220
dc5x.zip 02-Dec-2025 10:04 83071
dcm3366.zip 06-May-2026 08:16 68788
dcm3366d_w1.zip 06-May-2026 08:16 64186
dcm3366m_12_w1.zip 06-May-2026 08:16 65973
dcm3366ph241s.zip 11-Nov-2024 08:54 67577
dcm3366q.zip 06-May-2026 08:16 63555
dds3366m_w1.zip 06-May-2026 08:16 64347
debil64dido.zip 06-May-2026 08:16 49911
deif_h2.zip 06-May-2026 08:16 84762
delta_240_rc.zip 06-May-2026 08:16 83483
delta_adc380_200.zip 06-May-2026 08:16 97906
delta_dps_h.zip 06-May-2026 08:16 67299
deltahav36a.zip 06-May-2026 08:16 2591
deltahift.zip 06-May-2026 08:16 68493
deltanhnt.zip 06-May-2026 08:16 107767
deltant.zip 06-May-2026 08:16 2537
dfpm93.zip 06-May-2026 08:16 87988
diris_a40.zip 06-May-2026 08:16 66548
djddsd.zip 06-May-2026 08:16 68992
dk04.zip 06-May-2026 08:16 6797
dk04c.zip 06-May-2026 08:16 6216
dk09.zip 06-May-2026 08:16 79242
dkd46.zip 06-May-2026 08:16 97999
dkd46_419.zip 06-May-2026 08:16 125353
dm2300.zip 06-May-2026 08:16 67358
doctrl.zip 06-May-2026 08:16 64620
door_ms899_v5.zip 06-May-2026 08:16 70490
doorsensor.zip 06-May-2026 08:16 65948
doorxjl.zip 06-May-2026 08:16 2217
doorxjlb.zip 15-Sep-2025 09:14 170508
dpjg1k.zip 12-Jul-2024 09:32 70846
dpm8600.zip 14-Oct-2024 08:27 63905
dpu_dkln.zip 06-May-2026 08:16 65446
dse5210.zip 06-May-2026 08:16 84085
dse7310.zip 06-May-2026 08:16 77912
dse7310b.zip 06-May-2026 08:16 75935
dts100.zip 06-May-2026 08:16 70586
dts541.zip 06-May-2026 08:16 70614
dts541s.zip 06-May-2026 08:16 68545
dtsd3366d.zip 06-May-2026 08:16 83403
dtsd3366m4.zip 06-May-2026 08:16 92472
dtsd3366p4.zip 06-May-2026 08:16 70586
dv11_r2.zip 06-May-2026 08:16 64733
ea86.zip 06-May-2026 08:16 2236
eagle600.zip 06-May-2026 08:16 66052
eajk070swzl.zip 06-May-2026 08:16 47477
eatonups9390.zip 06-May-2026 08:16 4901
ecm2000.zip 06-May-2026 08:16 81387
em300.zip 06-May-2026 08:16 64708
em400.zip 06-May-2026 08:16 69248
engine6.zip 06-May-2026 08:16 175900
epm600k.zip 06-May-2026 08:16 112382
et903.zip 06-May-2026 08:16 87547
et903e.zip 06-May-2026 08:16 73281
etpower.zip 06-May-2026 08:16 124893
evocybermatedx.zip 06-May-2026 08:16 87552
evocybermatedxmodbus.zip 23-Sep-2024 08:27 78326
evou4xrowcw.zip 06-May-2026 08:16 90833
evou4xrowdx.zip 06-May-2026 08:16 114833
ex8_33.zip 06-May-2026 08:16 66829
exm2ups.zip 06-May-2026 08:16 95111
fansensor.zip 06-May-2026 08:16 47692
fc102.zip 06-May-2026 08:16 67673
fengji1.zip 06-May-2026 08:16 77922
fengji2.zip 06-May-2026 08:16 73451
fkdpc100ej.zip 06-May-2026 08:16 63315
fourseaats.zip 06-May-2026 08:16 2114
fresh_air.zip 06-May-2026 08:16 73073
ganshi_temperature.zip 06-May-2026 08:16 64737
gassensor.zip 06-May-2026 08:16 66592
geats.zip 06-May-2026 08:16 65506
general_temp_humid.zip 06-May-2026 08:16 94513
general_temp_humidb.zip 06-May-2026 08:16 93791
glassbroken.zip 06-May-2026 08:16 62186
gm6650dc.zip 06-May-2026 08:16 83644
gree.zip 06-May-2026 08:16 68037
greebmsac.zip 06-May-2026 08:16 80643
greejkf20cnnab.zip 06-May-2026 08:16 82952
greestationac.zip 06-May-2026 08:16 83250
gstinet03.zip 06-May-2026 08:16 56701
gtr85.zip 06-May-2026 08:16 76298
gu320a.zip 06-May-2026 08:16 71335
gu631a.zip 06-May-2026 08:16 80020
h2sensor.zip 06-May-2026 08:16 65055
h3gta.zip 06-May-2026 08:16 70946
h3gtabatterybalancer160.zip 06-May-2026 08:16 107701
h3gtc.zip 04-Feb-2026 07:55 69890
haihong.zip 06-May-2026 08:16 77619
haiwu.zip 06-May-2026 08:16 106093
haiwucsaf.zip 13-Nov-2024 07:03 124434
hanguang4pac.zip 24-Jun-2025 01:24 62956
hanguang4pdc.zip 06-May-2026 08:16 61951
hat400.zip 06-May-2026 08:16 69418
hat500.zip 06-May-2026 08:16 70849
hat600.zip 06-May-2026 08:16 71518
hbzs96k.zip 06-May-2026 08:16 65667
hc33.zip 06-May-2026 08:16 68285
hcccs03.zip 06-May-2026 08:16 71144
hds_sbms.zip 06-May-2026 08:16 79108
hgc300.zip 06-May-2026 08:16 88050
hgm6100.zip 06-May-2026 08:16 74822
hgm9300.zip 06-May-2026 08:16 91073
hgm9420n.zip 06-May-2026 08:16 136310
hgxy_sps.zip 06-May-2026 08:16 89306
hgxy_sps_tower.zip 06-May-2026 08:16 72246
hipulseu.zip 06-May-2026 08:16 83966
hisense.zip 06-May-2026 08:16 82118
hisense_v3.zip 06-May-2026 08:16 72393
hisenses.zip 06-May-2026 08:16 78661
hiwave_ac.zip 06-May-2026 08:16 108210
hongyindz.zip 06-May-2026 08:16 64363
hr_rtu_jg.zip 06-May-2026 08:16 80849
huaweilibattery.zip 06-May-2026 08:16 72073
huayizfsl.zip 06-May-2026 08:16 62371
huayizfsltianjinlu.zip 06-May-2026 08:16 68241
humid.zip 06-May-2026 08:16 2173
humid2.zip 06-May-2026 08:16 61340
humid303mini.zip 06-May-2026 08:16 46038
humid_sp.zip 06-May-2026 08:16 64153
humid_sp2.zip 06-May-2026 08:16 66001
hvdc.zip 06-May-2026 08:16 92832
hvdy.zip 06-May-2026 08:16 76737
hyltheatexchange.zip 21-Aug-2024 15:55 2603
hzjk01b.zip 06-May-2026 08:16 72322
icntmint.zip 06-May-2026 08:16 72153
igntc.zip 06-May-2026 08:16 149922
il4amf25.zip 06-May-2026 08:16 78573
il4mrs16.zip 06-May-2026 08:16 77576
infraredgrating.zip 06-May-2026 08:16 61063
infraredsensor.zip 06-May-2026 08:16 63341
innotemperature.zip 06-May-2026 08:16 64246
ita.zip 06-May-2026 08:16 83459
iteaq88005274.zip 06-May-2026 08:16 104532
iteaqcoolfree14.zip 06-May-2026 08:16 109063
iteaqcoolrow5000.zip 06-May-2026 08:16 75473
iteaqcoolsmart.zip 06-May-2026 08:16 88988
iteaqsbms.zip 06-May-2026 08:16 72106
iteaqups.zip 06-May-2026 08:16 101604
iteaqupsur.zip 06-May-2026 08:16 75529
jbatterybalancer.zip 06-May-2026 08:16 2452
jbatterybalancer160.zip 06-May-2026 08:16 65230
jbatterycontroller.zip 06-May-2026 08:16 3182
jbms.zip 06-May-2026 08:16 71029
jbms_d.zip 06-May-2026 08:16 67237
jbms_e.zip 06-May-2026 08:16 70393
jdrk_rssj_6h.zip 06-May-2026 08:16 70455
jgctemperature24.zip 06-May-2026 08:16 69698
jigui_bms.zip 06-May-2026 08:16 64186
jk070sw.zip 06-May-2026 08:16 2072
jpmc.zip 06-May-2026 08:16 95283
jxbs3001h2.zip 21-Aug-2024 15:55 61070
jxbs3001h2s.zip 06-May-2026 08:16 62762
jzl485.zip 06-May-2026 08:16 72981
jzlbtse.zip 06-May-2026 08:16 81456
jzlcharger.zip 06-May-2026 08:16 58147
jzlcharger2.zip 06-May-2026 08:16 56877
jzlcharger3.zip 06-May-2026 08:16 67348
jzlchargerfsbfbi.zip 06-May-2026 08:16 70218
jzldcdc.zip 06-May-2026 08:16 54530
jzlkd.zip 06-May-2026 08:16 63898
jzlmcc.zip 06-May-2026 08:16 65927
jzlvolcur.zip 06-May-2026 08:16 62995
k200.zip 06-May-2026 08:16 75693
kddsv22.zip 06-May-2026 08:16 170348
kelongmr33m.zip 06-May-2026 08:16 101319
kn10.zip 06-May-2026 08:16 91556
kstar_ups_megatec.zip 06-May-2026 08:16 94396
kstarmatrixair.zip 06-May-2026 08:16 86496
kstarups.zip 06-May-2026 08:16 132936
kstarupsbt.zip 06-May-2026 08:16 123661
libvdevice.so 24-Dec-2025 12:30 2080852
liebert_pex.zip 06-May-2026 08:16 76029
liebert_ups.zip 06-May-2026 08:16 4037
liebertapmups.zip 21-Aug-2024 15:55 6121
lkwenshidu.zip 21-Aug-2024 15:55 60836
ltech_engine.zip 06-May-2026 08:16 65391
m500f.zip 06-May-2026 08:16 278639
m520s.zip 06-May-2026 08:16 294589
m522s.zip 06-May-2026 08:16 275588
m522s_419.zip 06-May-2026 08:16 120419
m810g.zip 06-May-2026 08:16 276129
m810g_419.zip 06-May-2026 08:16 124168
m816.zip 06-May-2026 08:16 72814
m822e.zip 06-May-2026 08:16 105677
ma01c.zip 06-May-2026 08:16 133848
ma01dh.zip 06-May-2026 08:16 70764
ma01dl.zip 21-Oct-2024 05:38 83787
mainverter.zip 06-May-2026 08:16 1582
mapowermeter.zip 06-May-2026 08:16 55208
mars16.zip 06-May-2026 08:16 74856
mb5000l.zip 06-May-2026 08:16 74762
mc2600.zip 06-May-2026 08:16 74078
mcgs.zip 06-May-2026 08:16 77743
mcgs_1aa1.zip 06-May-2026 08:16 70641
mcgs_1au1.zip 06-May-2026 08:16 2814
mcgs_3au1.zip 06-May-2026 08:16 64178
mcgs_3au3.zip 06-May-2026 08:16 68650
mcs1800.zip 06-May-2026 08:16 271908
mcs1800a.zip 06-May-2026 08:16 298825
mcs6000.zip 06-May-2026 08:16 7110
mcs_fc3.zip 06-May-2026 08:16 86126
mdq_stb1_125.zip 06-May-2026 08:16 66618
mdtx_sc100e.zip 06-May-2026 08:16 79164
mdtx_sc100e_4.zip 06-May-2026 08:16 77108
mec048_h42c0.zip 06-May-2026 08:16 102889
mec10.zip 06-May-2026 08:16 1536
mec2x.zip 06-May-2026 08:16 83235
media_ac.zip 06-May-2026 08:16 78382
media_dcm.zip 06-May-2026 08:16 77029
mediamav.zip 06-May-2026 08:16 92317
mediamavb.zip 06-May-2026 08:16 89130
mediasaf.zip 06-May-2026 08:16 70287
met05_ac8.zip 06-May-2026 08:16 69001
meterdm2300n.zip 14-Jan-2025 09:55 64993
mindsecdps4d08.zip 06-May-2026 08:16 78030
modbus_bd330.zip 06-May-2026 08:16 56201
modbus_db600.zip 06-May-2026 08:16 57290
modbus_epower.zip 06-May-2026 08:16 58624
modbus_hisense.zip 06-May-2026 08:16 64484
modbus_md500.zip 06-May-2026 08:16 58094
modbus_tu_gfsu 05-Feb-2026 07:36 7492
modbus_vertiv_ac.zip 06-May-2026 08:16 75209
motor_battery.zip 06-May-2026 08:16 62454
motor_battery12.zip 06-May-2026 08:16 60588
mrs16l4.zip 06-May-2026 08:16 84632
ms10.zip 06-May-2026 08:16 71986
ms10fg.zip 06-May-2026 08:16 90599
ms19mb.zip 06-May-2026 08:16 77389
ms20.zip 06-May-2026 08:16 175041
mt_ghj.zip 06-May-2026 08:16 65556
multiinstrument.zip 06-May-2026 08:16 65353
multism18.zip 06-May-2026 08:16 67288
nb_temperature.zip 06-May-2026 08:16 2704
ndq5.zip 06-May-2026 08:16 66046
nes96xx.zip 06-May-2026 08:16 70174
nlk8do.zip 06-May-2026 08:16 48326
np9801.zip 06-May-2026 08:16 117083
ntc_temperature.zip 06-May-2026 08:16 54691
nxr.zip 06-May-2026 08:16 78474
p127.zip 06-May-2026 08:16 66294
p4gs0207cm.zip 06-May-2026 08:16 86995
pa194i.zip 06-May-2026 08:16 65691
pa194u.zip 06-May-2026 08:16 1309
pa2000.zip 06-May-2026 08:16 67730
pcc2110.zip 06-May-2026 08:16 75087
pd1688z.zip 06-May-2026 08:16 66866
pd194e.zip 06-May-2026 08:16 66709
pd194ui.zip 06-May-2026 08:16 65820
pd195ze31.zip 06-May-2026 08:16 65447
pd510.zip 06-May-2026 08:16 67239
pd606.zip 06-May-2026 08:16 74432
pdu8000.zip 06-May-2026 08:16 108403
pex3dx.zip 06-May-2026 08:16 83149
pex4s.zip 06-May-2026 08:16 117683
pexap.zip 06-May-2026 08:16 84550
pilotspm206.zip 12-Sep-2024 06:51 68909
pm25.zip 06-May-2026 08:16 55034
pm25v2.zip 06-May-2026 08:16 63999
pm4s.zip 06-May-2026 08:16 80650
pm5350.zip 06-May-2026 08:16 67074
pm550.zip 06-May-2026 08:16 64535
pmac203.zip 06-May-2026 08:16 80067
pmac600_a.zip 06-May-2026 08:16 64042
pmac600_b.zip 06-May-2026 08:16 64560
pmac625.zip 06-May-2026 08:16 85686
pmac720.zip 06-May-2026 08:16 94242
pmac910.zip 06-May-2026 08:16 65170
pmacs963e.zip 06-May-2026 08:16 65269
pmc33x.zip 06-May-2026 08:16 86430
pmc630s.zip 06-May-2026 08:16 67248
pmchmi.zip 06-May-2026 08:16 83342
pmchmi_dc.zip 06-May-2026 08:16 83482
pmf632b.zip 06-May-2026 08:16 71128
pmf720y.zip 06-May-2026 08:16 74401
pmf910l.zip 06-May-2026 08:16 79141
pmhiwave.zip 05-Nov-2025 07:22 85330
pmtowerdoor.zip 06-May-2026 08:16 69989
pmu400.zip 06-May-2026 08:16 66316
pmu500.zip 06-May-2026 08:16 66818
pmw2800.zip 06-May-2026 08:16 88808
power_302a.zip 06-May-2026 08:16 73775
powercommand33.zip 06-May-2026 08:16 74835
powermeter_leak.zip 06-May-2026 08:16 54336
powerwizard.zip 06-May-2026 08:16 74278
prsh2.zip 06-May-2026 08:16 63208
psm15a.zip 06-May-2026 08:16 279989
psm15a_419.zip 06-May-2026 08:16 117786
psma.zip 06-May-2026 08:16 280797
psma9.zip 06-May-2026 08:16 281159
psma_419.zip 06-May-2026 08:16 119242
pstcn980.zip 06-May-2026 08:16 66930
qb2000n.zip 06-May-2026 08:16 62889
rpdu.zip 06-May-2026 08:16 77802
rssjdwn01r01.zip 06-May-2026 08:16 76080
rswsn01_humid_sp2.zip 06-May-2026 08:16 47936
rswsn01_temperature_sp2.zip 06-May-2026 08:16 48006
ruipu_ups.zip 06-May-2026 08:16 75355
sac3000.zip 06-May-2026 08:16 73990
sca.zip 06-May-2026 08:16 79048
scd.zip 21-Aug-2024 15:55 63112
schneidercompactnsx.zip 06-May-2026 08:16 66052
schneiderdm2300.zip 06-May-2026 08:16 65235
schneiderdm2365st.zip 06-May-2026 08:16 66036
scu.zip 06-May-2026 08:16 80086
scwchiller.zip 06-May-2026 08:16 87488
sdc.zip 06-May-2026 08:16 91123
sdhdbdm.zip 06-May-2026 08:16 67716
sdhdbmu.zip 06-May-2026 08:16 62510
sg2022.zip 06-May-2026 08:16 65809
sgc420.zip 06-May-2026 08:16 88333
sgc420mkii.zip 06-May-2026 08:16 89623
shendian.zip 06-May-2026 08:16 65790
shm_test 08-Jul-2024 11:30 5552
sicam_p35.zip 06-May-2026 08:16 77812
sicamp37.zip 06-May-2026 08:16 88256
skmki.zip 06-May-2026 08:16 282170
sl1882s_mz3_5_1.zip 06-May-2026 08:16 83231
sl1882s_mz3_5_2.zip 06-May-2026 08:16 85297
sl3500th3ct.zip 06-May-2026 08:16 75122
sl3500th3ct2.zip 06-May-2026 08:16 100092
sl6100th3ct.zip 06-May-2026 08:16 89970
sl6200th1ct2.zip 06-May-2026 08:16 187949
sl6200th1ct2v215.zip 06-May-2026 08:16 207016
sm3600b20.zip 06-May-2026 08:16 68907
smartli3.zip 06-May-2026 08:16 87526
smoke.zip 06-May-2026 08:16 394
smoke2.zip 06-May-2026 08:16 64678
smpdu.zip 06-May-2026 08:16 67452
smu06c.zip 06-May-2026 08:16 308192
smu06c_419.zip 06-May-2026 08:16 125054
snp1313.zip 06-May-2026 08:16 65560
socketagc150.zip 06-May-2026 08:16 88599
spc.zip 06-May-2026 08:16 68032
spm322020modbus.zip 21-Aug-2024 15:55 60713
spm33.zip 06-May-2026 08:16 73678
sqlite3 22-Apr-2024 09:37 217716
st6_20k.zip 06-May-2026 08:16 96133
suacfanbalancer.zip 06-May-2026 08:16 64198
subattery.zip 06-May-2026 08:16 69046
sunrise_eda.zip 06-May-2026 08:16 86384
sutemperature3.zip 06-May-2026 08:16 63236
sxyw.zip 21-Aug-2024 15:55 113169
taac.zip 06-May-2026 08:16 65686
tbea_powermeter1.zip 06-May-2026 08:16 65149
tbea_powermeter2.zip 06-May-2026 08:16 64166
tc20.zip 06-May-2026 08:16 89722
tclstationac.zip 06-May-2026 08:16 81267
tcmeter.zip 02-Dec-2024 09:34 1701
temperature.zip 06-May-2026 08:16 2760
temperature2.zip 06-May-2026 08:16 61880
temperature3.zip 06-May-2026 08:16 61986
temperature303mini.zip 06-May-2026 08:16 1281
temperature_sp.zip 06-May-2026 08:16 64385
temperature_sp2.zip 06-May-2026 08:16 66656
temtransmitter.zip 06-May-2026 08:16 64542
threephasemeter.zip 06-May-2026 08:16 62310
thse10.zip 06-May-2026 08:16 64499
tlsd.zip 06-May-2026 08:16 273367
tm5530.zip 06-May-2026 08:16 72333
tmcontroller.zip 06-May-2026 08:16 162545
tmcontroller20250701.zip 06-May-2026 08:16 106572
tmqth2.zip 06-May-2026 08:16 66688
tpc_7062.zip 06-May-2026 08:16 66712
ug20.zip 06-May-2026 08:16 3646
ug30.zip 06-May-2026 08:16 4018
ug40.zip 06-May-2026 08:16 81141
uh11.zip 06-May-2026 08:16 74938
ul33.zip 06-May-2026 08:16 97486
unicom_ac.zip 06-May-2026 08:16 65780
unicom_ac2.zip 06-May-2026 08:16 69385
unicom_acrpz96.zip 06-May-2026 08:16 56638
unicom_coolfree.zip 06-May-2026 08:16 87440
unicom_coolmaster3k.zip 06-May-2026 08:16 77750
unicom_dps6000.zip 06-May-2026 08:16 133874
unicom_engine.zip 06-May-2026 08:16 81038
unicom_h3gbatterybalancer160.zip 06-May-2026 08:16 71627
unicom_hmi2796s.zip 06-May-2026 08:16 65281
unicom_iplu_2801bm.zip 06-May-2026 08:16 70741
unicom_irmsensor.zip 06-May-2026 08:16 65913
unicom_ll11.zip 06-May-2026 08:16 88688
unicom_ll13.zip 06-May-2026 08:16 88069
unicom_nhbaccontroller.zip 06-May-2026 08:16 75682
unicom_p14.zip 06-May-2026 08:16 66290
unicom_pdu8000.zip 06-May-2026 08:16 69456
unicom_powermetertype1.zip 06-May-2026 08:16 67227
unicom_rc.zip 06-May-2026 08:16 66217
unicom_spm33.zip 06-May-2026 08:16 67576
unicom_ups.zip 06-May-2026 08:16 82752
unicom_ups5000.zip 06-May-2026 08:16 119864
unicom_yd2018.zip 06-May-2026 08:16 73699
unicom_yd6600.zip 06-May-2026 08:16 75860
unicom_yd8771y.zip 06-May-2026 08:16 65606
unicom_yd8771y1.zip 06-May-2026 08:16 64636
unicom_yd8771yb.zip 06-May-2026 08:16 64755
unicom_ydet903e.zip 06-May-2026 08:16 54215
unicom_yn194e2s4.zip 06-May-2026 08:16 56429
unicompowermeter.zip 06-May-2026 08:16 64800
unicomxjslplc.zip 06-May-2026 08:16 140196
unicomzyt39124.zip 06-May-2026 08:16 70003
unicomzytmeter.zip 06-May-2026 08:16 71230
ups2000.zip 06-May-2026 08:16 89804
ups5000.zip 06-May-2026 08:16 152778
ups_3u_hq_m.zip 06-May-2026 08:16 90089
ups_eu_hq_m.zip 06-May-2026 08:16 84496
upsbattery650_voltage.zip 06-May-2026 08:16 62074
upsbattery750_voltage.zip 06-May-2026 08:16 62075
upsbattery_20.zip 06-May-2026 08:16 222527
upsbattery_29.zip 06-May-2026 08:16 222397
upsbattery_30.zip 06-May-2026 08:16 222321
upskstar.zip 06-May-2026 08:16 65671
vca.zip 06-May-2026 08:16 65413
vtumodel.zip 06-May-2026 08:16 1820
vtumodelyunbase.zip 06-May-2026 08:16 87314
water.zip 06-May-2026 08:16 394
water2.zip 06-May-2026 08:16 65809
wkcontroller.zip 06-May-2026 08:16 79152
wotpclevel3.zip 06-May-2026 08:16 68837
wrwf_kr1110.zip 06-May-2026 08:16 98581
xdfreshair.zip 06-May-2026 08:16 68418
xdfreshair2.zip 06-May-2026 08:16 64644
xdfreshaircool.zip 06-May-2026 08:16 82727
xfc500.zip 06-May-2026 08:16 67734
xhb_pqa_x2.zip 06-May-2026 08:16 61400
xhbpqax.zip 06-May-2026 08:16 66263
xiangjiangxiaomuxian.zip 06-May-2026 08:16 113604
xinruidabat23.zip 14-Oct-2024 09:43 63427
xjbabushui.zip 06-May-2026 08:16 67582
xjbadianbiaotongxun.zip 06-May-2026 08:16 65691
xjbaerdanyuan.zip 06-May-2026 08:16 80067
xjbahuanguan.zip 06-May-2026 08:16 71833
xjbahuanjing.zip 06-May-2026 08:16 63992
xjbalengjitongxun.zip 06-May-2026 08:16 66753
xjbalengquetatongxue.zip 06-May-2026 08:16 63926
xjbalengquetatongxun.zip 06-May-2026 08:16 67105
xjbaliudanyuan.zip 06-May-2026 08:16 69844
xjbalouceng.zip 06-May-2026 08:16 101439
xjbamoduanzongguan.zip 06-May-2026 08:16 70730
xjbasandanyuan.zip 06-May-2026 08:16 73099
xjbashuichulishebeitongxun.zip 06-May-2026 08:16 71334
xjbasidanyuan.zip 06-May-2026 08:16 69732
xjbawudanyuan.zip 06-May-2026 08:16 77213
xjbaxulengguan.zip 06-May-2026 08:16 69400
xjbaxulengguantongxun.zip 06-May-2026 08:16 63239
xjbayidanyuan.zip 06-May-2026 08:16 80186
xjchangjiliejian.zip 06-May-2026 08:16 77304
xjdh_kl.zip 06-May-2026 08:16 90952
xjdh_m.zip 06-May-2026 08:16 82784
xjdxba500.zip 06-May-2026 08:16 59286
xjdxba510.zip 06-May-2026 08:16 67597
xjdxba511.zip 06-May-2026 08:16 69565
xjdxba512.zip 06-May-2026 08:16 69387
xjdxba513.zip 06-May-2026 08:16 69192
xjdxba514.zip 06-May-2026 08:16 69519
xjdxba515.zip 06-May-2026 08:16 70110
xjdxba516.zip 06-May-2026 08:16 71863
xjdxba517.zip 06-May-2026 08:16 69363
xjdxba518.zip 06-May-2026 08:16 68556
xjdxba519.zip 06-May-2026 08:16 78578
xjdxba525.zip 06-May-2026 08:16 69150
xjdxba526.zip 06-May-2026 08:16 69161
xjdxba527.zip 06-May-2026 08:16 69202
xjdxba528.zip 06-May-2026 08:16 69156
xjdxba529.zip 06-May-2026 08:16 70093
xjdxba530.zip 06-May-2026 08:16 69198
xjdxba531.zip 06-May-2026 08:16 67265
xjdxba532.zip 06-May-2026 08:16 67726
xjdxba533.zip 06-May-2026 08:16 68630
xjdxba534.zip 06-May-2026 08:16 68307
xjdxba535.zip 06-May-2026 08:16 74821
xjdxba536.zip 06-May-2026 08:16 77918
xjdxba537.zip 06-May-2026 08:16 69237
xjdxba538.zip 06-May-2026 08:16 69726
xjunicompowermeter.zip 06-May-2026 08:16 64664
xwpc3.zip 06-May-2026 08:16 64392
yananac.zip 06-May-2026 08:16 64211
yananbattery.zip 06-May-2026 08:16 80863
yd2037yr.zip 06-May-2026 08:16 55888
yd2037ys.zip 06-May-2026 08:16 72069
yd2200.zip 06-May-2026 08:16 92204
yd_dems_bd2_rht.zip 06-May-2026 08:16 92961
yd_dems_vd2.zip 06-May-2026 08:16 72772
yf8015.zip 06-May-2026 08:16 190317
yinjia.zip 06-May-2026 08:16 68790
yz900.zip 06-May-2026 08:16 69245
zhm15m.zip 06-May-2026 08:16 67340
zhm19m.zip 06-May-2026 08:16 85812
zhongtian_419.zip 06-May-2026 08:16 113570
zmdoc.zip 06-May-2026 08:16 65504
znv_access4000.zip 06-May-2026 08:16 53452
znv_datamate3000.zip 06-May-2026 08:16 68409
znv_humid.zip 06-May-2026 08:16 61025
znv_rua050cxt1l3.zip 06-May-2026 08:16 53557
znv_temperature.zip 06-May-2026 08:16 61193
znvbm41.zip 06-May-2026 08:16 74858
znvbm41_48.zip 06-May-2026 08:16 73776
znvbm41_ups.zip 06-May-2026 08:16 71257
znvdtms10.zip 06-May-2026 08:16 69634
znvh3ga0.zip 06-May-2026 08:16 73132
znvh3ga0_48.zip 06-May-2026 08:16 71575
zt310d_419.zip 06-May-2026 08:16 110728
zxdcmeter.zip 06-May-2026 08:16 69659
zxdu300_500.zip 06-May-2026 08:16 274566
zxdu300_500_419.zip 06-May-2026 08:16 119983
zxdu68_419.zip 06-May-2026 08:16 117242
zxdu68_t601v41_419.zip 06-May-2026 08:16 118516
zxdu68_t601v50_419.zip 06-May-2026 08:16 115132
zxm10_dth.zip 06-May-2026 08:16 71115
zxm10_dth_b.zip 06-May-2026 08:16 70840
zxmeter18.zip 05-Dec-2024 03:38 63578
zxpowermeter4.zip 06-May-2026 08:16 64455
zxpowermeter6.zip 06-May-2026 08:16 64476